This is the latest recevied weather packets stored in our database for station/object NZ3C. If no packets are shown the sender has not sent any weather packets the latest 10 day(s).
| Time | Temp. | Humidity | Pressure | Rain* | Wind** | Luminosity | Snow |
|---|---|---|---|---|---|---|---|
| 1777936666 | 24.44° C | 34% | 1015.2 hPa | 0 mm | - | 30 W/m² | - |
| 1777936363 | 24.44° C | 34% | 1015.1 hPa | 0 mm | - | 33 W/m² | - |
| 1777936058 | 25° C | 34% | 1015.1 hPa | 0 mm | - | 36 W/m² | - |
| 1777935757 | 25° C | 34% | 1015.1 hPa | 0 mm | - | 38 W/m² | - |
| 1777935456 | 25° C | 33% | 1015.3 hPa | 0 mm | - | 41 W/m² | - |
| 1777935151 | 25.56° C | 34% | 1015.2 hPa | 0 mm | - | 45 W/m² | - |
| 1777934849 | 25.56° C | 33% | 1015.3 hPa | 0 mm | - | 53 W/m² | - |
| 1777934546 | 25.56° C | 33% | 1015 hPa | 0 mm | - | 46 W/m² | - |
| 1777934242 | 26.11° C | 32% | 1015.2 hPa | 0 mm | - | 96 W/m² | - |
| 1777933937 | 25.56° C | 33% | 1015.2 hPa | 0 mm | - | 90 W/m² | - |
| 1777933635 | 25.56° C | 31% | 1015.2 hPa | 0 mm | - | 92 W/m² | - |
| 1777933332 | 25.56° C | 32% | 1015.2 hPa | 0 mm | - | 142 W/m² | - |
| 1777933029 | 25.56° C | 32% | 1015.2 hPa | 0 mm | - | 59 W/m² | - |
| 1777932726 | 25.56° C | 32% | 1015.2 hPa | 0 mm | - | 61 W/m² | - |
| 1777932423 | 25.56° C | 31% | 1015.3 hPa | 0 mm | - | 130 W/m² | - |
| 1777932120 | 26.11° C | 31% | 1015.2 hPa | 0 mm | - | 92 W/m² | - |
| 1777931816 | 25.56° C | 31% | 1015.2 hPa | 0 mm | - | 206 W/m² | - |
| 1777931514 | 25.56° C | 31% | 1015.2 hPa | 0 mm | - | 182 W/m² | - |
| 1777931209 | 25.56° C | 32% | 1015.4 hPa | 0 mm | - | 73 W/m² | - |
| 1777930906 | 25.56° C | 32% | 1015.4 hPa | 0 mm | - | 73 W/m² | - |
| 1777930603 | 25.56° C | 32% | 1015.1 hPa | 0 mm | - | 74 W/m² | - |
| 1777930299 | 25.56° C | 32% | 1015.3 hPa | 0 mm | - | 134 W/m² | - |
| 1777929996 | 25.56° C | 31% | 1015.2 hPa | 0 mm | - | 111 W/m² | - |
| 1777929693 | 26.11° C | 29% | 1015.2 hPa | 0 mm | - | 76 W/m² | - |
| 1777929390 | 26.11° C | 32% | 1015.3 hPa | 0 mm | - | 168 W/m² | - |
* Rain latest hour (hover to see other rain measurements)
** Current wind speed in m/s (hover to see current wind gust speed)